Location: Arleux
(50.3632°N, 2.8721°E)
Time: 19:43:24
(UTC+00:00)

N. Korean satellite - Pass Details

Date: 09 March 2021
Orbit: 452 x 499 km, 97.2° (Epoch: 15 April)

Event Time Altitude Azimuth Distance (km) Brightness Sun altitude
Rises 04:16:16 0° 28° (NNE) 2,545 10.9 -19.6°
Reaches altitude 10° 04:18:59 10° 51° (NE) 1,670 10.3 -19.2°
Maximum altitude 04:21:16 16° 91° (E) 1,344 9.8 -18.8°
Drops below altitude 10° 04:23:33 10° 130° (SE) 1,677 9.7 -18.5°
Sets 04:26:16 0° 153° (SSE) 2,561 10.4 -18.1°
